Location: Góry Miechowskie
(50.3599°N, 20.1803°E)
Time: 15:27:37
(UTC+00:00)

Vanguard 1 Rocket - Pass Details

Date: 20 September 2024
Orbit: 650 x 4218 km, 34.3° (Epoch: 07 October)

Event Time Altitude Azimuth Distance (km) Brightness Sun altitude
Rises 22:39:10 0° 176° (S) 4,478 - -39.0°
Reaches altitude 10° 22:44:18 10° 149° (SSE) 4,169 - -39.0°
Maximum altitude 22:48:48 13° 126° (SE) 4,487 - -38.9°
Exits shadow 22:50:44 13° 117° (ESE) 4,754 10.8 -38.9°
Drops below altitude 10° 22:54:21 10° 104° (ESE) 5,384 11.2 -38.8°
Sets 23:03:34 0° 83° (E) 7,316 12.2 -38.6°
